Tracking 21612 objects as of 19-Oct-2020
HD Live streaming from Space Station
objects crossing your sky now

COSMOS 1275 DEB

Track COSMOS 1275 DEB now!
10-day predictions


NORAD ID: 39968
Int'l Code: 1981-053PL
Perigee: 926.7 km
Apogee: 1,049.7 km
Inclination: 83.1 °
Period: 104.7 minutes
Semi major axis: 7359 km
RCS: 0.0026 m2 (small)
Launch date: April 25, 1981
Source: Commonwealth of Independent States (former USSR) (CIS)
Launch site: PLESETSK MISSILE AND SPACE COMPLEX (PKMTR)

Note: This is SATELLITE DEBRIS
aabbcc
Your satellite tracking list
Your tracking list is empty




NASA's NSSDC Master Catalog

Two Line Element Set (TLE):
1 39968U 81053PE  20292.06023024 -.00000052 +00000-0 -70073-4 0  9994
2 39968 083.1483 039.5974 0083623 101.0482 260.0094 13.75170954778037
Source of the keplerian elements: AFSPC